{"data":{"norad_id":60748,"epoch":"2026-09-22T22:20:52.998144Z","epoch_age_seconds":81536,"freshness":"FRESH","line1":"1 60748U 24153D   26265.93116896  .00012172  00000+0  41678-3 0  9995","line2":"2 60748  97.6906  47.0306 0001631 178.7960 181.3284 15.30379331114786","mean_motion":15.30379331,"eccentricity":0.0001631,"inclination_deg":97.6906,"raan_deg":47.0306,"arg_perigee_deg":178.796,"mean_anomaly_deg":181.3284,"bstar":0.00041678,"rev_number":11478,"period_min":94.094318371319,"perigee_km":473.56197726652,"apogee_km":475.79736606481,"semimajor_km":6852.8166716657,"source":"CELESTRAK","updated_at":"2026-09-23T09:00:20.718278Z"}}